owner,sensor,date,latitude,longitude,vertical_datum,direction_of_sea_water_velocity,sea_water_speed,upward_sea_water_velocity,qcFlag 
TABS,ioos:station:wmo:42044:1,1998-06-01T00:00:00Z,26.1914,-97.0507,2.0,338.7910339,2.874717377,-99999.0,'11133222,11111222,99999999' 
TABS,ioos:station:wmo:42044:1,1998-06-01T01:00:00Z,26.1914,-97.0507,2.0,264.2509291,2.995062604,-99999.0,'11133222,11111222,99999999' 
TABS,ioos:station:wmo:42044:1,1998-06-01T02:00:00Z,26.1914,-97.0507,2.0,304.5701201,2.890328701,-99999.0,'11133222,11111222,99999999' 
TABS,ioos:station:wmo:42044:1,1998-06-01T03:00:00Z,26.1914,-97.0507,2.0,295.337834,3.131213822,-99999.0,'11133222,11111222,99999999' 
TABS,ioos:station:wmo:42044:1,1998-06-01T06:00:00Z,26.1914,-97.0507,2.0,19.4244246,8.058684756,-99999.0,'11133222,11111222,99999999' 
TABS,ioos:station:wmo:42044:1,1998-06-01T07:00:00Z,26.1914,-97.0507,2.0,20.46328811,9.382030697,-99999.0,'11133222,11111222,99999999' 
TABS,ioos:station:wmo:42044:1,1998-06-01T08:00:00Z,26.1914,-97.0507,2.0,26.86766241,11.86026981,-99999.0,'11111222,11111222,99999999' 
TABS,ioos:station:wmo:42044:1,1998-06-01T09:00:00Z,26.1914,-97.0507,2.0,32.71214124,11.86121832,-99999.0,'11111222,11111222,99999999' 
TABS,ioos:station:wmo:42044:1,1998-06-01T10:00:00Z,26.1914,-97.0507,2.0,34.75392185,13.59527124,-99999.0,'11111222,11111222,99999999' 
TABS,ioos:station:wmo:42044:1,1998-06-01T11:00:00Z,26.1914,-97.0507,2.0,35.52914629,15.38421269,-99999.0,'11111222,11111222,99999999' 
TABS,ioos:station:wmo:42044:1,1998-06-01T12:00:00Z,26.1914,-97.0507,2.0,50.60720377,18.30974877,-99999.0,'11111222,11111222,99999999' 
TABS,ioos:station:wmo:42044:1,1998-06-01T13:00:00Z,26.1914,-97.0507,2.0,39.59820647,14.4964306,-99999.0,'11111222,11111222,99999999' 
TABS,ioos:station:wmo:42044:1,1998-06-01T14:00:00Z,26.1914,-97.0507,2.0,55.88286475,11.1608781,-99999.0,'11111222,11111222,99999999' 
TABS,ioos:station:wmo:42044:1,1998-06-01T14:30:00Z,26.1914,-97.0507,2.0,37.92921758,11.14390416,-99999.0,'11111222,11111222,99999999' 
TABS,ioos:station:wmo:42044:1,1998-06-01T15:00:00Z,26.1914,-97.0507,2.0,48.44294231,19.31058259,-99999.0,'11111222,11111222,99999999' 
TABS,ioos:station:wmo:42044:1,1998-06-01T17:00:00Z,26.1914,-97.0507,2.0,354.5459362,7.785248872,-99999.0,'11133222,11111222,99999999' 
TABS,ioos:station:wmo:42044:1,1998-06-01T17:30:00Z,26.1914,-97.0507,2.0,35.09312556,13.48048219,-99999.0,'11111222,11111222,99999999' 
TABS,ioos:station:wmo:42044:1,1998-06-01T18:00:00Z,26.1914,-97.0507,2.0,32.58538028,10.78815091,-99999.0,'11111222,11111222,99999999' 
TABS,ioos:station:wmo:42044:1,1998-06-01T18:30:00Z,26.1914,-97.0507,2.0,43.55840508,8.431381856,-99999.0,'11133222,11111222,99999999' 
TABS,ioos:station:wmo:42044:1,1998-06-01T19:00:00Z,26.1914,-97.0507,2.0,35.31909524,10.04968159,-99999.0,'11111222,11111222,99999999' 
TABS,ioos:station:wmo:42044:1,1998-06-01T19:30:00Z,26.1914,-97.0507,2.0,28.59591454,9.339213029,-99999.0,'11133222,11111222,99999999' 
TABS,ioos:station:wmo:42044:1,1998-06-01T20:00:00Z,26.1914,-97.0507,2.0,32.12248348,21.28904178,-99999.0,'11111222,11111222,99999999' 
TABS,ioos:station:wmo:42044:1,1998-06-01T20:30:00Z,26.1914,-97.0507,2.0,22.56073695,17.09847069,-99999.0,'11111222,11111222,99999999' 
TABS,ioos:station:wmo:42044:1,1998-06-01T21:00:00Z,26.1914,-97.0507,2.0,20.61804437,17.35136018,-99999.0,'11111222,11111222,99999999' 
TABS,ioos:station:wmo:42044:1,1998-06-01T21:30:00Z,26.1914,-97.0507,2.0,7.470014282,16.07643306,-99999.0,'11111222,11111222,99999999' 
TABS,ioos:station:wmo:42044:1,1998-06-01T22:00:00Z,26.1914,-97.0507,2.0,358.1406155,4.622434424,-99999.0,'11133222,11111222,99999999' 
TABS,ioos:station:wmo:42044:1,1998-06-01T23:30:00Z,26.1914,-97.0507,2.0,356.4011971,14.17796177,-99999.0,'11111222,11111222,99999999' 
TABS,ioos:station:wmo:42044:1,1998-06-02T00:00:00Z,26.1914,-97.0507,2.0,344.157815,11.46550479,-99999.0,'11111222,11111222,99999999' 
TABS,ioos:station:wmo:42044:1,1998-06-02T00:30:00Z,26.1914,-97.0507,2.0,318.1452658,5.799939655,-99999.0,'11133222,11111222,99999999' 
TABS,ioos:station:wmo:42044:1,1998-06-02T01:00:00Z,26.1914,-97.0507,2.0,230.9955139,8.055588123,-99999.0,'11133222,11111222,99999999' 
TABS,ioos:station:wmo:42044:1,1998-06-02T01:30:00Z,26.1914,-97.0507,2.0,322.6453111,6.378228594,-99999.0,'11133222,11111222,99999999' 
TABS,ioos:station:wmo:42044:1,1998-06-02T02:00:00Z,26.1914,-97.0507,2.0,292.6900128,6.94769746,-99999.0,'11133222,11111222,99999999' 
TABS,ioos:station:wmo:42044:1,1998-06-02T02:30:00Z,26.1914,-97.0507,2.0,322.5771116,12.01256009,-99999.0,'11111222,11111222,99999999' 
TABS,ioos:station:wmo:42044:1,1998-06-02T03:00:00Z,26.1914,-97.0507,2.0,322.1690616,12.63577857,-99999.0,'11111222,11111222,99999999' 
TABS,ioos:station:wmo:42044:1,1998-06-02T04:30:00Z,26.1914,-97.0507,2.0,350.2156056,17.53507342,-99999.0,'11111222,11111222,99999999' 
TABS,ioos:station:wmo:42044:1,1998-06-02T05:00:00Z,26.1914,-97.0507,2.0,356.7116094,20.74416062,-99999.0,'11111222,11111222,99999999' 
TABS,ioos:station:wmo:42044:1,1998-06-02T05:30:00Z,26.1914,-97.0507,2.0,355.046163,18.99094521,-99999.0,'11111222,11111222,99999999' 
TABS,ioos:station:wmo:42044:1,1998-06-02T06:00:00Z,26.1914,-97.0507,2.0,0.774428813,22.20202693,-99999.0,'11111222,11111222,99999999' 
TABS,ioos:station:wmo:42044:1,1998-06-02T06:30:00Z,26.1914,-97.0507,2.0,7.9891152,24.6795158,-99999.0,'11111222,11111222,99999999' 
TABS,ioos:station:wmo:42044:1,1998-06-02T07:00:00Z,26.1914,-97.0507,2.0,14.44748448,25.69245998,-99999.0,'11111222,11111222,99999999' 
TABS,ioos:station:wmo:42044:1,1998-06-02T07:30:00Z,26.1914,-97.0507,2.0,14.46859466,28.61759249,-99999.0,'11111222,11111222,99999999' 
TABS,ioos:station:wmo:42044:1,1998-06-02T08:00:00Z,26.1914,-97.0507,2.0,14.25116016,27.8263077,-99999.0,'11111222,11111222,99999999' 
TABS,ioos:station:wmo:42044:1,1998-06-02T08:30:00Z,26.1914,-97.0507,2.0,11.75989643,29.97923615,-99999.0,'11111222,11111222,99999999' 
TABS,ioos:station:wmo:42044:1,1998-06-02T09:00:00Z,26.1914,-97.0507,2.0,8.130293801,31.60767312,-99999.0,'11111222,11111222,99999999' 
TABS,ioos:station:wmo:42044:1,1998-06-02T09:30:00Z,26.1914,-97.0507,2.0,6.586032398,33.74266291,-99999.0,'11111222,11111222,99999999' 
TABS,ioos:station:wmo:42044:1,1998-06-02T10:00:00Z,26.1914,-97.0507,2.0,7.343894754,33.79723066,-99999.0,'11111222,11111222,99999999' 
TABS,ioos:station:wmo:42044:1,1998-06-02T10:30:00Z,26.1914,-97.0507,2.0,8.832098457,33.0215354,-99999.0,'11111222,11111222,99999999' 
TABS,ioos:station:wmo:42044:1,1998-06-02T11:00:00Z,26.1914,-97.0507,2.0,7.979317483,32.20175461,-99999.0,'11111222,11111222,99999999' 
TABS,ioos:station:wmo:42044:1,1998-06-02T11:30:00Z,26.1914,-97.0507,2.0,7.993290952,34.30326224,-99999.0,'11111222,11111222,99999999' 
TABS,ioos:station:wmo:42044:1,1998-06-02T12:00:00Z,26.1914,-97.0507,2.0,6.533926858,32.69233549,-99999.0,'11111222,11111222,99999999' 
TABS,ioos:station:wmo:42044:1,1998-06-02T12:30:00Z,26.1914,-97.0507,2.0,20.8423173,39.37664409,-99999.0,'11111222,11111222,99999999' 
TABS,ioos:station:wmo:42044:1,1998-06-02T13:00:00Z,26.1914,-97.0507,2.0,17.00794671,37.70920975,-99999.0,'11111222,11111222,99999999' 
TABS,ioos:station:wmo:42044:1,1998-06-02T13:30:00Z,26.1914,-97.0507,2.0,17.87290268,38.35078748,-99999.0,'11111222,11111222,99999999' 
TABS,ioos:station:wmo:42044:1,1998-06-02T14:00:00Z,26.1914,-97.0507,2.0,18.97788142,39.39109798,-99999.0,'11111222,11111222,99999999' 
TABS,ioos:station:wmo:42044:1,1998-06-02T14:30:00Z,26.1914,-97.0507,2.0,15.25951894,35.67784326,-99999.0,'11111222,11111222,99999999' 
TABS,ioos:station:wmo:42044:1,1998-06-02T15:00:00Z,26.1914,-97.0507,2.0,18.30010596,38.91825921,-99999.0,'11111222,11111222,99999999' 
TABS,ioos:station:wmo:42044:1,1998-06-02T15:30:00Z,26.1914,-97.0507,2.0,22.04223661,38.90351655,-99999.0,'11111222,11111222,99999999' 
TABS,ioos:station:wmo:42044:1,1998-06-02T16:00:00Z,26.1914,-97.0507,2.0,18.80226371,36.51873218,-99999.0,'11111222,11111222,99999999' 
TABS,ioos:station:wmo:42044:1,1998-06-02T16:30:00Z,26.1914,-97.0507,2.0,18.29746124,40.80298641,-99999.0,'11111222,11111222,99999999' 
TABS,ioos:station:wmo:42044:1,1998-06-02T17:00:00Z,26.1914,-97.0507,2.0,20.48619714,42.14537816,-99999.0,'11111222,11111222,99999999' 
TABS,ioos:station:wmo:42044:1,1998-06-02T17:30:00Z,26.1914,-97.0507,2.0,13.43169705,34.01023963,-99999.0,'11111222,11111222,99999999' 
TABS,ioos:station:wmo:42044:1,1998-06-02T18:00:00Z,26.1914,-97.0507,2.0,17.55056154,33.59371667,-99999.0,'11111222,11111222,99999999' 
TABS,ioos:station:wmo:42044:1,1998-06-02T18:30:00Z,26.1914,-97.0507,2.0,26.29709465,42.05195477,-99999.0,'11111222,11111222,99999999' 
TABS,ioos:station:wmo:42044:1,1998-06-02T19:00:00Z,26.1914,-97.0507,2.0,21.20240325,39.95453666,-99999.0,'11111222,11111222,99999999' 
TABS,ioos:station:wmo:42044:1,1998-06-02T19:30:00Z,26.1914,-97.0507,2.0,6.583743497,27.30002381,-99999.0,'11111222,11111222,99999999' 
TABS,ioos:station:wmo:42044:1,1998-06-02T20:00:00Z,26.1914,-97.0507,2.0,20.12982039,35.07235093,-99999.0,'11111222,11111222,99999999' 
TABS,ioos:station:wmo:42044:1,1998-06-02T21:30:00Z,26.1914,-97.0507,2.0,351.2982513,23.66238576,-99999.0,'11111222,11111222,99999999' 
TABS,ioos:station:wmo:42044:1,1998-06-02T22:00:00Z,26.1914,-97.0507,2.0,343.3344919,21.3049337,-99999.0,'11111222,11111222,99999999' 
TABS,ioos:station:wmo:42044:1,1998-06-02T22:30:00Z,26.1914,-97.0507,2.0,334.6370517,15.99140394,-99999.0,'11111222,11111222,99999999' 
TABS,ioos:station:wmo:42044:1,1998-06-02T23:00:00Z,26.1914,-97.0507,2.0,328.7309244,18.64902142,-99999.0,'11111222,11111222,99999999' 
TABS,ioos:station:wmo:42044:1,1998-06-02T23:30:00Z,26.1914,-97.0507,2.0,316.1168067,16.33019596,-99999.0,'11111222,11111222,99999999' 
TABS,ioos:station:wmo:42044:1,1998-06-03T00:00:00Z,26.1914,-97.0507,2.0,356.1818909,26.87966704,-99999.0,'11111222,11111222,99999999' 
TABS,ioos:station:wmo:42044:1,1998-06-03T00:30:00Z,26.1914,-97.0507,2.0,354.4377016,21.56153288,-99999.0,'11111222,11111222,99999999' 
TABS,ioos:station:wmo:42044:1,1998-06-03T01:00:00Z,26.1914,-97.0507,2.0,333.8805154,17.26296614,-99999.0,'11111222,11111222,99999999' 
TABS,ioos:station:wmo:42044:1,1998-06-03T01:30:00Z,26.1914,-97.0507,2.0,345.6164769,23.99206536,-99999.0,'11111222,11111222,99999999' 
TABS,ioos:station:wmo:42044:1,1998-06-03T02:00:00Z,26.1914,-97.0507,2.0,327.629164,19.76088308,-99999.0,'11111222,11111222,99999999' 
TABS,ioos:station:wmo:42044:1,1998-06-03T02:30:00Z,26.1914,-97.0507,2.0,338.7451733,25.90196325,-99999.0,'11111222,11111222,99999999' 
TABS,ioos:station:wmo:42044:1,1998-06-03T03:00:00Z,26.1914,-97.0507,2.0,341.5591019,29.20995892,-99999.0,'11111222,11111222,99999999' 
TABS,ioos:station:wmo:42044:1,1998-06-03T04:30:00Z,26.1914,-97.0507,2.0,341.8164774,32.46109209,-99999.0,'11111222,11111222,99999999' 
TABS,ioos:station:wmo:42044:1,1998-06-03T05:00:00Z,26.1914,-97.0507,2.0,341.3199516,33.96949808,-99999.0,'11111222,11111222,99999999' 
TABS,ioos:station:wmo:42044:1,1998-06-03T05:30:00Z,26.1914,-97.0507,2.0,344.3573858,35.89968384,-99999.0,'11111222,11111222,99999999' 
TABS,ioos:station:wmo:42044:1,1998-06-03T06:00:00Z,26.1914,-97.0507,2.0,342.6288647,35.43626391,-99999.0,'11111222,11111222,99999999' 
TABS,ioos:station:wmo:42044:1,1998-06-03T06:30:00Z,26.1914,-97.0507,2.0,340.6103017,36.80770028,-99999.0,'11111222,11111222,99999999' 
TABS,ioos:station:wmo:42044:1,1998-06-03T07:00:00Z,26.1914,-97.0507,2.0,344.9027598,38.892408,-99999.0,'11111222,11111222,99999999' 
TABS,ioos:station:wmo:42044:1,1998-06-03T07:30:00Z,26.1914,-97.0507,2.0,344.6685206,40.01405378,-99999.0,'11111222,11111222,99999999' 
TABS,ioos:station:wmo:42044:1,1998-06-03T08:00:00Z,26.1914,-97.0507,2.0,346.6844875,40.11856428,-99999.0,'11111222,11111222,99999999' 
TABS,ioos:station:wmo:42044:1,1998-06-03T08:30:00Z,26.1914,-97.0507,2.0,349.4827354,44.10093083,-99999.0,'11111222,11111222,99999999' 
TABS,ioos:station:wmo:42044:1,1998-06-03T09:00:00Z,26.1914,-97.0507,2.0,345.9135663,44.08571764,-99999.0,'11111222,11111222,99999999' 
TABS,ioos:station:wmo:42044:1,1998-06-03T09:30:00Z,26.1914,-97.0507,2.0,349.7065557,45.88858791,-99999.0,'11111222,11111222,99999999' 
TABS,ioos:station:wmo:42044:1,1998-06-03T10:00:00Z,26.1914,-97.0507,2.0,348.3673014,47.31180825,-99999.0,'11111222,11111222,99999999' 
TABS,ioos:station:wmo:42044:1,1998-06-03T10:30:00Z,26.1914,-97.0507,2.0,350.3874567,48.20688125,-99999.0,'11111222,11111222,99999999' 
TABS,ioos:station:wmo:42044:1,1998-06-03T11:00:00Z,26.1914,-97.0507,2.0,352.2758969,49.9229907,-99999.0,'11111222,11111222,99999999' 
TABS,ioos:station:wmo:42044:1,1998-06-03T11:30:00Z,26.1914,-97.0507,2.0,351.752294,50.88634001,-99999.0,'11111222,11111222,99999999' 
TABS,ioos:station:wmo:42044:1,1998-06-03T12:00:00Z,26.1914,-97.0507,2.0,354.0952795,49.28149044,-99999.0,'11111222,11111222,99999999' 
TABS,ioos:station:wmo:42044:1,1998-06-03T12:30:00Z,26.1914,-97.0507,2.0,350.4174371,49.25733346,-99999.0,'11111222,11111222,99999999' 
TABS,ioos:station:wmo:42044:1,1998-06-03T13:00:00Z,26.1914,-97.0507,2.0,344.6934711,45.72193019,-99999.0,'11111222,11111222,99999999' 
TABS,ioos:station:wmo:42044:1,1998-06-03T13:30:00Z,26.1914,-97.0507,2.0,357.3418848,51.31522191,-99999.0,'11111222,11111222,99999999' 
TABS,ioos:station:wmo:42044:1,1998-06-03T14:00:00Z,26.1914,-97.0507,2.0,359.6629166,50.96088304,-99999.0,'11111222,11144222,99999999' 
TABS,ioos:station:wmo:42044:1,1998-06-03T15:30:00Z,26.1914,-97.0507,2.0,1.771231024,53.06534839,-99999.0,'11111222,11111222,99999999' 
TABS,ioos:station:wmo:42044:1,1998-06-03T16:00:00Z,26.1914,-97.0507,2.0,1.45951773,52.61706567,-99999.0,'11111222,11111222,99999999' 
TABS,ioos:station:wmo:42044:1,1998-06-03T17:00:00Z,26.1914,-97.0507,2.0,3.731127142,52.71171502,-99999.0,'11111222,11111222,99999999' 
TABS,ioos:station:wmo:42044:1,1998-06-03T17:30:00Z,26.1914,-97.0507,2.0,359.6280855,46.19097423,-99999.0,'11111222,11144222,99999999' 
TABS,ioos:station:wmo:42044:1,1998-06-03T18:00:00Z,26.1914,-97.0507,2.0,4.486843522,49.47160094,-99999.0,'11111222,11111222,99999999' 
TABS,ioos:station:wmo:42044:1,1998-06-03T18:30:00Z,26.1914,-97.0507,2.0,4.042413119,50.78633675,-99999.0,'11111222,11111222,99999999' 
TABS,ioos:station:wmo:42044:1,1998-06-03T19:00:00Z,26.1914,-97.0507,2.0,1.960424377,52.33062297,-99999.0,'11111222,11111222,99999999' 
TABS,ioos:station:wmo:42044:1,1998-06-03T19:30:00Z,26.1914,-97.0507,2.0,2.82581419,51.32239764,-99999.0,'11111222,11111222,99999999' 
TABS,ioos:station:wmo:42044:1,1998-06-03T20:00:00Z,26.1914,-97.0507,2.0,5.163297583,49.67153913,-99999.0,'11111222,11111222,99999999' 
TABS,ioos:station:wmo:42044:1,1998-06-03T20:30:00Z,26.1914,-97.0507,2.0,330.7485253,34.15546955,-99999.0,'11111222,11111222,99999999' 
TABS,ioos:station:wmo:42044:1,1998-06-03T21:00:00Z,26.1914,-97.0507,2.0,342.0465361,39.15670313,-99999.0,'11111222,11111222,99999999' 
TABS,ioos:station:wmo:42044:1,1998-06-03T21:30:00Z,26.1914,-97.0507,2.0,341.4818291,34.72817012,-99999.0,'11111222,11111222,99999999' 
TABS,ioos:station:wmo:42044:1,1998-06-03T22:00:00Z,26.1914,-97.0507,2.0,340.1842091,35.16209323,-99999.0,'11111222,11111222,99999999' 
TABS,ioos:station:wmo:42044:1,1998-06-03T22:30:00Z,26.1914,-97.0507,2.0,337.344616,33.25616033,-99999.0,'11111222,11111222,99999999' 
TABS,ioos:station:wmo:42044:1,1998-06-03T23:00:00Z,26.1914,-97.0507,2.0,2.145273853,39.80789495,-99999.0,'11111222,11111222,99999999' 
TABS,ioos:station:wmo:42044:1,1998-06-03T23:30:00Z,26.1914,-97.0507,2.0,2.511031352,37.43593995,-99999.0,'11111222,11111222,99999999' 
TABS,ioos:station:wmo:42044:1,1998-06-04T00:00:00Z,26.1914,-97.0507,2.0,358.9838361,33.82532188,-99999.0,'11111222,11111222,99999999' 
TABS,ioos:station:wmo:42044:1,1998-06-04T00:30:00Z,26.1914,-97.0507,2.0,358.8387592,36.5075006,-99999.0,'11111222,11111222,99999999' 
TABS,ioos:station:wmo:42044:1,1998-06-04T01:00:00Z,26.1914,-97.0507,2.0,340.650073,26.52856951,-99999.0,'11111222,11111222,99999999' 
TABS,ioos:station:wmo:42044:1,1998-06-04T01:30:00Z,26.1914,-97.0507,2.0,352.0418183,34.45181127,-99999.0,'11111222,11111222,99999999' 
TABS,ioos:station:wmo:42044:1,1998-06-04T02:00:00Z,26.1914,-97.0507,2.0,348.4766856,32.08678388,-99999.0,'11111222,11111222,99999999' 
TABS,ioos:station:wmo:42044:1,1998-06-04T02:30:00Z,26.1914,-97.0507,2.0,351.2475315,33.31801014,-99999.0,'11111222,11111222,99999999' 
TABS,ioos:station:wmo:42044:1,1998-06-04T03:00:00Z,26.1914,-97.0507,2.0,350.6563603,35.78480404,-99999.0,'11111222,11111222,99999999' 
TABS,ioos:station:wmo:42044:1,1998-06-04T04:30:00Z,26.1914,-97.0507,2.0,347.0816591,33.3234587,-99999.0,'11111222,11111222,99999999' 
TABS,ioos:station:wmo:42044:1,1998-06-04T05:00:00Z,26.1914,-97.0507,2.0,345.2111605,32.67236906,-99999.0,'11111222,11111222,99999999' 
TABS,ioos:station:wmo:42044:1,1998-06-04T05:30:00Z,26.1914,-97.0507,2.0,343.1962328,32.99908635,-99999.0,'11111222,11111222,99999999' 
TABS,ioos:station:wmo:42044:1,1998-06-04T06:00:00Z,26.1914,-97.0507,2.0,339.6748016,34.31674227,-99999.0,'11111222,11111222,99999999' 
TABS,ioos:station:wmo:42044:1,1998-06-04T06:30:00Z,26.1914,-97.0507,2.0,343.1850319,35.0172429,-99999.0,'11111222,11111222,99999999' 
TABS,ioos:station:wmo:42044:1,1998-06-04T07:00:00Z,26.1914,-97.0507,2.0,342.180252,35.06219189,-99999.0,'11111222,11111222,99999999' 
TABS,ioos:station:wmo:42044:1,1998-06-04T07:30:00Z,26.1914,-97.0507,2.0,340.9571154,35.15385896,-99999.0,'11111222,11111222,99999999' 
TABS,ioos:station:wmo:42044:1,1998-06-04T08:00:00Z,26.1914,-97.0507,2.0,338.1111098,35.16516742,-99999.0,'11111222,11111222,99999999' 
TABS,ioos:station:wmo:42044:1,1998-06-04T08:30:00Z,26.1914,-97.0507,2.0,339.6665001,35.59833283,-99999.0,'11111222,11111222,99999999' 
TABS,ioos:station:wmo:42044:1,1998-06-04T09:00:00Z,26.1914,-97.0507,2.0,339.5514381,37.52462791,-99999.0,'11111222,11111222,99999999' 
TABS,ioos:station:wmo:42044:1,1998-06-04T09:30:00Z,26.1914,-97.0507,2.0,342.8581237,37.42243311,-99999.0,'11111222,11111222,99999999' 
TABS,ioos:station:wmo:42044:1,1998-06-04T10:00:00Z,26.1914,-97.0507,2.0,345.3020286,40.51585492,-99999.0,'11111222,11111222,99999999' 
TABS,ioos:station:wmo:42044:1,1998-06-04T10:30:00Z,26.1914,-97.0507,2.0,347.2270681,42.4710313,-99999.0,'11111222,11111222,99999999' 
TABS,ioos:station:wmo:42044:1,1998-06-04T11:00:00Z,26.1914,-97.0507,2.0,342.8281143,44.91208857,-99999.0,'11111222,11111222,99999999' 
TABS,ioos:station:wmo:42044:1,1998-06-04T11:30:00Z,26.1914,-97.0507,2.0,341.755655,42.83328729,-99999.0,'11111222,11111222,99999999' 
TABS,ioos:station:wmo:42044:1,1998-06-04T12:00:00Z,26.1914,-97.0507,2.0,340.5986533,42.17497481,-99999.0,'11111222,11111222,99999999' 
TABS,ioos:station:wmo:42044:1,1998-06-04T12:30:00Z,26.1914,-97.0507,2.0,343.1998704,41.24023278,-99999.0,'11111222,11111222,99999999' 
TABS,ioos:station:wmo:42044:1,1998-06-04T13:00:00Z,26.1914,-97.0507,2.0,341.3732725,41.51461429,-99999.0,'11111222,11111222,99999999' 
TABS,ioos:station:wmo:42044:1,1998-06-04T13:30:00Z,26.1914,-97.0507,2.0,345.7208193,42.2864671,-99999.0,'11111222,11111222,99999999' 
TABS,ioos:station:wmo:42044:1,1998-06-04T14:00:00Z,26.1914,-97.0507,2.0,356.5576178,44.63053775,-99999.0,'11111222,11111222,99999999' 
TABS,ioos:station:wmo:42044:1,1998-06-04T14:30:00Z,26.1914,-97.0507,2.0,348.8164808,39.18409882,-99999.0,'11111222,11111222,99999999' 
TABS,ioos:station:wmo:42044:1,1998-06-04T15:00:00Z,26.1914,-97.0507,2.0,353.5904335,42.72709328,-99999.0,'11111222,11111222,99999999' 
TABS,ioos:station:wmo:42044:1,1998-06-04T15:30:00Z,26.1914,-97.0507,2.0,355.164021,45.9034258,-99999.0,'11111222,11111222,99999999' 
TABS,ioos:station:wmo:42044:1,1998-06-04T16:00:00Z,26.1914,-97.0507,2.0,356.0649314,47.79268563,-99999.0,'11111222,11111222,99999999' 
TABS,ioos:station:wmo:42044:1,1998-06-04T16:30:00Z,26.1914,-97.0507,2.0,357.9089486,49.05267067,-99999.0,'11111222,11111222,99999999' 
TABS,ioos:station:wmo:42044:1,1998-06-04T17:00:00Z,26.1914,-97.0507,2.0,355.1081342,48.89813187,-99999.0,'11111222,11111222,99999999' 
TABS,ioos:station:wmo:42044:1,1998-06-04T17:30:00Z,26.1914,-97.0507,2.0,353.7652001,43.91979622,-99999.0,'11111222,11111222,99999999' 
TABS,ioos:station:wmo:42044:1,1998-06-04T18:00:00Z,26.1914,-97.0507,2.0,348.7664448,41.32170616,-99999.0,'11111222,11111222,99999999' 
TABS,ioos:station:wmo:42044:1,1998-06-04T18:30:00Z,26.1914,-97.0507,2.0,355.073953,46.81292557,-99999.0,'11111222,11111222,99999999' 
TABS,ioos:station:wmo:42044:1,1998-06-04T19:00:00Z,26.1914,-97.0507,2.0,356.2561162,47.93230435,-99999.0,'11111222,11111222,99999999' 
TABS,ioos:station:wmo:42044:1,1998-06-04T19:30:00Z,26.1914,-97.0507,2.0,4.666781487,42.15975925,-99999.0,'11111222,11111222,99999999' 
TABS,ioos:station:wmo:42044:1,1998-06-04T20:00:00Z,26.1914,-97.0507,2.0,3.512805672,43.74217644,-99999.0,'11111222,11111222,99999999' 
TABS,ioos:station:wmo:42044:1,1998-06-04T20:30:00Z,26.1914,-97.0507,2.0,2.590950372,46.23725987,-99999.0,'11111222,11111222,99999999' 
TABS,ioos:station:wmo:42044:1,1998-06-04T21:00:00Z,26.1914,-97.0507,2.0,359.8085869,44.85025084,-99999.0,'11111222,11144222,99999999' 
TABS,ioos:station:wmo:42044:1,1998-06-04T21:30:00Z,26.1914,-97.0507,2.0,337.8680882,37.95675961,-99999.0,'11111222,11111222,99999999' 
TABS,ioos:station:wmo:42044:1,1998-06-04T22:00:00Z,26.1914,-97.0507,2.0,334.8754076,37.18861385,-99999.0,'11111222,11111222,99999999' 
TABS,ioos:station:wmo:42044:1,1998-06-04T22:30:00Z,26.1914,-97.0507,2.0,333.5501189,33.4516442,-99999.0,'11111222,11111222,99999999' 
TABS,ioos:station:wmo:42044:1,1998-06-04T23:00:00Z,26.1914,-97.0507,2.0,339.5553924,34.98366476,-99999.0,'11111222,11111222,99999999' 
TABS,ioos:station:wmo:42044:1,1998-06-05T00:00:00Z,26.1914,-97.0507,2.0,2.888825254,41.47269584,-99999.0,'11111222,11111222,99999999' 
TABS,ioos:station:wmo:42044:1,1998-06-05T00:30:00Z,26.1914,-97.0507,2.0,1.464676893,40.69329183,-99999.0,'11111222,11111222,99999999' 
TABS,ioos:station:wmo:42044:1,1998-06-05T01:00:00Z,26.1914,-97.0507,2.0,3.336225789,40.89930684,-99999.0,'11111222,11111222,99999999' 
TABS,ioos:station:wmo:42044:1,1998-06-05T01:30:00Z,26.1914,-97.0507,2.0,350.9360417,31.22998559,-99999.0,'11111222,11111222,99999999' 
TABS,ioos:station:wmo:42044:1,1998-06-05T02:00:00Z,26.1914,-97.0507,2.0,1.773364722,38.4584152,-99999.0,'11111222,11111222,99999999' 
TABS,ioos:station:wmo:42044:1,1998-06-05T02:30:00Z,26.1914,-97.0507,2.0,351.8727788,30.55691247,-99999.0,'11111222,11111222,99999999' 
TABS,ioos:station:wmo:42044:1,1998-06-05T03:00:00Z,26.1914,-97.0507,2.0,346.3294774,27.75634162,-99999.0,'11111222,11111222,99999999' 
TABS,ioos:station:wmo:42044:1,1998-06-05T04:30:00Z,26.1914,-97.0507,2.0,346.4523032,29.88147419,-99999.0,'11111222,11111222,99999999' 
TABS,ioos:station:wmo:42044:1,1998-06-05T05:00:00Z,26.1914,-97.0507,2.0,348.8666454,29.31165638,-99999.0,'11111222,11111222,99999999' 
TABS,ioos:station:wmo:42044:1,1998-06-05T05:30:00Z,26.1914,-97.0507,2.0,346.9915118,30.4309875,-99999.0,'11111222,11111222,99999999' 
TABS,ioos:station:wmo:42044:1,1998-06-05T06:00:00Z,26.1914,-97.0507,2.0,349.4317509,26.82504986,-99999.0,'11111222,11111222,99999999' 
TABS,ioos:station:wmo:42044:1,1998-06-05T06:30:00Z,26.1914,-97.0507,2.0,349.4807228,25.3053117,-99999.0,'11111222,11111222,99999999' 
TABS,ioos:station:wmo:42044:1,1998-06-05T07:00:00Z,26.1914,-97.0507,2.0,350.1180158,26.91941307,-99999.0,'11111222,11111222,99999999' 
TABS,ioos:station:wmo:42044:1,1998-06-05T07:30:00Z,26.1914,-97.0507,2.0,349.1471695,25.33312653,-99999.0,'11111222,11111222,99999999' 
TABS,ioos:station:wmo:42044:1,1998-06-05T08:00:00Z,26.1914,-97.0507,2.0,350.3794312,26.74617356,-99999.0,'11111222,11111222,99999999' 
TABS,ioos:station:wmo:42044:1,1998-06-05T08:30:00Z,26.1914,-97.0507,2.0,349.071346,25.95066088,-99999.0,'11111222,11111222,99999999' 
TABS,ioos:station:wmo:42044:1,1998-06-05T09:00:00Z,26.1914,-97.0507,2.0,350.3216323,25.69574478,-99999.0,'11111222,11111222,99999999' 
TABS,ioos:station:wmo:42044:1,1998-06-05T09:30:00Z,26.1914,-97.0507,2.0,355.2995287,27.21152881,-99999.0,'11111222,11111222,99999999' 